Vorticity
nan nan nan nan nan nan nan nan nan nan nan nan nan nan nan nan nan nan nan nan nan nan nan nan nan nan nan nan nan nan nan nan nan nan nan nan nan nan nan nan nan nan nan
nan 9 10 9 8 8 7 8 9 9 7 7 8 9 9 10 8 7 6 7 8 9 11 13 16 15 12 11 9 10 9 9 10 9 8 12 9 9 7 6 10 10 nan
nan 8 9 8 8 7 8 9 9 9 9 8 9 9 9 10 10 9 7 8 10 11 14 13 14 12 16 15 11 10 9 10 9 10 11 8 7 10 10 10 10 8 nan
nan 9 9 9 7 7 8 9 8 9 10 10 11 11 10 9 11 12 8 8 9 7 13 15 11 16 22 15 16 11 9 10 11 10 9 9 10 11 11 9 11 11 nan
nan 9 9 8 7 7 7 7 9 9 10 10 11 12 11 11 17 12 7 8 7 6 8 12 7 6 14 20 20 18 10 9 9 10 10 9 9 11 10 8 10 11 nan
nan 8 9 9 8 8 8 8 9 10 10 9 10 11 11 16 17 6 4 7 9 9 8 9 7 11 9 9 5 16 23 11 6 7 9 9 9 9 7 9 8 9 nan
nan 8 9 9 9 8 9 9 9 9 10 10 10 11 10 19 14 4 5 2 6 9 10 9 9 8 8 10 10 13 24 20 9 9 9 8 10 8 10 10 6 8 nan
nan 8 8 8 9 9 9 9 8 9 11 11 10 9 9 20 17 5 4 2 5 6 7 8 7 7 5 5 16 16 17 25 20 9 8 9 7 11 13 10 11 10 nan
nan 8 8 9 9 9 9 8 9 11 10 12 11 8 7 18 18 6 4 7 5 8 9 8 5 4 2 7 16 14 18 20 22 16 9 6 11 11 9 10 11 10 nan
nan 8 9 10 9 9 10 9 11 12 9 9 10 10 9 17 18 15 6 5 8 8 9 14 13 4 1 9 11 17 17 24 22 16 15 10 10 9 10 5 7 10 nan
nan 9 10 10 10 9 10 11 11 9 9 8 9 10 11 12 12 22 18 9 7 7 9 10 12 8 5 6 12 12 18 33 25 14 14 15 12 11 9 11 7 8 nan
nan 10 9 10 9 14 14 7 10 12 10 10 10 9 12 15 12 6 10 11 10 13 9 9 5 5 10 10 5 5 19 36 36 19 14 13 15 15 13 12 11 7 nan
nan 10 9 9 10 11 11 12 13 10 8 10 9 11 11 9 15 10 8 11 11 10 10 11 13 12 11 8 7 11 20 21 15 17 19 20 20 18 16 14 14 13 nan
nan 10 9 10 12 12 14 12 6 12 14 13 12 9 11 11 9 5 12 15 11 7 11 13 16 15 13 11 11 14 11 12 11 10 14 15 16 19 20 18 17 16 nan
nan 10 11 13 10 10 9 14 18 15 17 16 16 15 12 14 9 10 12 9 6 10 13 13 8 11 13 13 11 12 12 9 9 9 10 11 13 13 13 16 20 18 nan
nan 10 8 11 13 13 13 3 10 16 11 13 10 19 18 5 6 18 17 9 13 14 12 9 11 11 12 11 12 11 8 10 14 11 7 9 8 11 11 11 15 15 nan
nan 14 13 12 11 13 17 12 3 2 6 10 8 7 9 5 13 18 14 5 14 21 15 10 11 10 11 13 12 12 11 11 10 12 13 11 8 7 7 11 12 13 nan
nan 12 11 14 17 16 14 13 13 15 11 4 1 6 9 7 10 13 19 22 9 13 11 11 11 11 11 12 11 12 12 13 13 11 10 10 15 15 11 8 8 10 nan
nan 15 14 13 14 15 12 10 9 11 14 12 13 9 9 13 3 7 17 21 12 10 10 10 10 10 10 10 12 12 13 12 10 12 12 12 12 12 13 15 17 10 nan
nan 17 16 12 9 8 10 11 8 6 9 12 11 11 10 12 12 11 14 12 11 9 9 10 10 11 11 11 11 10 11 9 11 12 10 11 13 14 9 13 16 12 nan
nan 8 9 8 9 10 11 10 10 9 12 10 11 8 10 16 12 10 10 10 10 9 12 11 8 9 10 10 10 12 10 9 11 11 12 11 10 9 13 14 9 13 nan
nan 10 7 8 10 11 10 12 11 10 12 11 10 9 11 10 10 10 11 10 9 9 11 10 10 11 10 10 11 11 11 11 9 10 11 11 11 9 13 14 13 10 nan
nan 11 10 9 12 14 10 8 11 12 11 10 10 10 14 11 10 10 10 9 10 10 10 9 11 12 11 12 12 11 10 9 9 10 11 12 11 12 14 10 10 12 nan
nan 9 9 10 10 11 12 10 8 11 15 13 10 10 10 11 13 11 7 9 10 11 12 11 9 10 14 14 13 12 10 9 10 7 12 14 12 12 12 12 11 12 nan
nan 10 12 14 12 12 12 11 10 10 10 10 10 10 10 11 10 9 11 12 11 11 11 10 11 10 9 11 12 11 9 9 8 13 12 11 10 13 13 13 13 10 nan
nan nan nan nan nan nan nan nan nan nan nan nan nan nan nan nan nan nan nan nan nan nan nan nan nan nan nan nan nan nan nan nan nan nan nan nan nan nan nan nan nan nan nan
CAPE
403 235 146 83 54 11 24 158 251 274 358 354 476 519 513 533 514 524 490 277 391 476 488 678 804 1093 681 732 1191 1655 1699 1516 709 271 213 587 2076 1358 1188 1303 1509 1735 1370
194 137 65 63 103 45 52 125 190 224 369 431 525 784 728 695 699 741 628 537 508 408 421 608 756 731 890 1225 944 1064 1103 1139 994 1158 467 547 1297 1875 1725 2529 2171 1172 1452
50 40 45 95 80 87 101 62 129 288 409 541 726 716 632 731 701 682 729 492 371 282 200 232 59 222 321 705 1163 847 587 973 919 1090 530 365 347 451 1140 2054 2378 2062 1166
12 0 37 235 169 99 103 206 257 466 621 788 797 819 864 857 793 784 654 475 289 136 52 34 12 47 290 626 607 1116 1083 737 974 836 593 317 319 744 1039 1275 1833 1222 1128
86 121 96 263 360 169 415 552 566 516 481 669 663 756 744 721 690 732 400 432 263 148 61 5 6 37 14 8 51 629 656 1010 652 784 464 305 452 658 769 860 1210 1270 1623
491 258 261 449 646 773 565 624 599 475 430 576 641 636 804 786 0 0 50 339 165 191 145 7 6 31 14 17 5 1 36 498 983 791 434 458 806 611 538 816 871 1092 925
647 444 430 736 777 775 361 535 578 632 669 567 584 652 826 873 72 0 4 275 203 127 170 175 9 10 14 12 8 8 2 2 76 1072 578 586 888 820 928 1020 1469 1548 1385
726 631 599 728 808 772 490 414 553 705 635 577 604 730 765 707 81 1 0 341 431 241 181 201 92 29 9 2 4 8 15 3 297 131 803 629 883 785 1034 1167 1999 1799 2000
549 644 587 718 795 837 729 679 735 671 427 402 582 784 807 820 85 6 0 442 697 381 334 262 169 90 0 0 1 2 5 24 0 10 42 185 192 118 486 1079 1089 1206 759
473 498 364 622 887 801 769 716 670 635 476 504 564 759 811 720 384 201 0 827 767 999 358 535 111 30 2 0 0 2 6 8 30 230 234 20 19 107 3 711 938 1292 1179
500 307 362 918 1295 1237 828 786 723 866 799 805 930 924 768 338 703 208 0 423 1090 732 690 223 376 67 3 0 0 1 1 3 15 60 299 618 546 520 614 285 729 572 590
767 718 1125 1431 1309 540 1186 887 662 907 1089 948 1039 881 418 411 186 6 0 0 7 192 334 406 455 88 10 4 1 0 0 2 27 61 82 42 280 697 505 663 784 580 883
1635 1330 1336 894 866 1243 1241 1104 749 653 502 516 538 406 597 426 346 0 0 2 0 0 70 159 6 66 55 80 38 3 4 10 4 3 5 3 30 551 382 517 967 958 1085
1145 1012 1259 1145 1123 1212 964 677 578 374 645 743 580 430 333 356 381 47 0 50 6 0 1 140 57 54 44 91 90 59 81 14 8 4 4 8 4 1 8 200 389 480 903
812 907 959 825 831 820 1005 407 414 0 115 115 398 316 271 218 31 0 0 0 0 0 0 155 27 2 4 14 28 94 76 90 19 7 0 2 3 5 4 4 15 326 248
824 690 525 501 435 307 356 119 0 0 0 0 0 0 0 0 0 0 0 0 0 0 49 1 0 0 2 8 7 8 15 28 98 35 6 1 2 2 14 1 3 4 4
670 530 358 78 210 486 713 412 0 0 0 0 0 0 0 0 0 0 0 0 0 0 0 0 0 1 0 2 9 9 8 5 8 5 11 82 2 1 1 23 20 19 12
489 9 246 394 522 554 409 266 83 10 44 19 0 0 0 0 0 0 0 0 0 0 0 0 1 3 5 3 3 5 6 8 12 14 12 8 9 84 82 16 12 2 20
391 412 657 361 268 15 2 1 0 0 5 4 10 1 1 0 0 0 0 1 1 1 1 1 2 2 2 3 5 10 10 0 2 12 23 13 9 24 117 119 83 12 2
92 20 20 103 2 1 1 1 1 0 5 6 4 7 12 11 10 8 5 5 3 1 0 1 0 0 2 2 1 0 1 1 3 3 2 6 2 2 1 93 176 102 103
117 125 1 24 4 6 7 5 6 5 2 4 8 1 0 7 5 7 6 4 2 1 2 0 0 0 0 0 0 0 0 0 0 0 1 4 0 0 0 1 5 43 92
94 83 107 33 7 2 0 1 8 2 5 9 8 1 0 6 6 11 7 4 1 0 0 0 0 0 0 0 0 0 0 0 0 0 1 2 0 1 2 2 6 2 1
13 3 4 3 0 0 1 1 3 3 2 3 3 2 6 14 12 5 7 6 4 1 0 0 0 0 0 0 0 0 0 0 0 0 0 0 0 0 0 0 0 4 7
0 0 0 0 0 0 0 0 1 0 0 0 0 0 1 3 8 2 2 1 1 0 0 0 0 0 0 0 0 0 0 0 0 0 0 0 0 0 0 0 2 1 0
0 0 0 0 0 0 0 0 0 1 1 1 0 0 0 0 0 0 0 0 0 0 0 0 0 0 0 0 0 0 0 0 0 0 0 0 0 0 0 0 0 0 0
0 0 0 0 0 0 0 1 2 3 2 0 0 0 0 0 0 0 0 0 0 0 0 0 0 0 0 0 0 0 0 0 0 0 0 0 0 0 0 0 0 0 0